Starlink 32814

operational
NORAD ID: 62871 Int'l Des: 2025-022 Owner: SPXS Country: US Constellation: starlink
LEOCIRCULAR

Über Starlink 32814

Beschreibung wird geladen...

Live-Position

3D-Globus wird geladen...

Nächste Überflüge

Höhenverlauf

Altitude vs Time

uPlot chart will show altitude changes over time

Zweizeiliger Elementsatz

1 62871U 25022T 25305.44064823 .00031349 00000-0 10654-2 0 9999
2 62871 53.1610 5.3899 0001429 90.6470 269.4694 15.30222727 42263
Epoch: 1. Nov. 2025 • Age: 22 hours

Aktueller Status

Höhe 479.5 km
Geschwindigkeit 7.63 km/s
Subsatellitenpunkt 48.20°N, 52.37°W
Startdatum 2. Feb. 2025
Alter 0.7 years
Typ internet

Technische Details

Klassifizierung Payload
Masse 730.00 kg
Trockenmasse 700.00 kg
Gesamtmasse 730.00 kg
Länge 0.30 m
Durchmesser 4.10 m
Spannweite 29.00 m
Form Box + pan
Hersteller SPXS
Bus-Typ Starlink V2M
Phasenstatus In Orbit
Besitzer/Staat SPXS/US

Große Konstellationen

Loading constellations...